Tracking 19563 objects as of 20-Mar-2019
HD Live streaming from Space Station
objects crossing your sky now

DUMSAT

Track DUMSAT now!
10-day predictions
DUMSAT is classified as:


NORAD ID: 26086
Int'l Code: 2000-009A
Perigee: 576.4 km
Apogee: 601.6 km
Inclination: 64.9 °
Period: 96.3 minutes
Semi major axis: 6960 km
RCS: 1.3862 m2 (large)
Launch date: February 8, 2000
Source: Commonwealth of Independent States (former USSR) (CIS)
Launch site: TYURATAM MISSILE AND SPACE COMPLEX (TTMTR)
aabbcc
Your satellite tracking list
Your tracking list is empty




NASA's NSSDC Master Catalog

Two Line Element Set (TLE):
1 26086U 00009A   19078.33453498 -.00000128 +00000-0 +29634-5 0  9996
2 26086 064.8529 047.7119 0018146 275.8232 084.0814 14.95161277042437
Source of the keplerian elements: AFSPC